TimeMDT,TemperatureF,Dew PointF,Humidity,Sea Level PressureIn,VisibilityMPH,Wind Direction,Wind SpeedMPH,Gust SpeedMPH,PrecipitationIn,Events,Conditions,WindDirDegrees,DateUTC
12:15 AM,41.0,28.4,61,30.08,10.0,Calm,Calm,-,N/A,,Overcast,0,2013-04-04 06:15:00
12:35 AM,44.6,30.2,57,30.07,10.0,SW,6.9,-,N/A,,Overcast,220,2013-04-04 06:35:00
12:55 AM,46.4,30.2,53,30.07,10.0,South,3.5,-,N/A,,Mostly Cloudy,180,2013-04-04 06:55:00
1:15 AM,44.6,28.4,53,30.07,10.0,Calm,Calm,-,N/A,,Mostly Cloudy,0,2013-04-04 07:15:00
1:35 AM,44.6,28.4,53,30.07,10.0,Calm,Calm,-,N/A,,Overcast,0,2013-04-04 07:35:00
1:55 AM,44.6,28.4,53,30.06,10.0,South,6.9,-,N/A,,Overcast,180,2013-04-04 07:55:00
2:15 AM,44.6,28.4,53,30.06,10.0,South,9.2,-,N/A,,Overcast,190,2013-04-04 08:15:00
2:35 AM,46.4,28.4,50,30.06,10.0,SSW,5.8,-,N/A,,Scattered Clouds,210,2013-04-04 08:35:00
2:55 AM,46.4,28.4,50,30.05,10.0,SSW,11.5,-,N/A,,Scattered Clouds,200,2013-04-04 08:55:00
3:15 AM,46.4,28.4,50,30.05,10.0,South,10.4,-,N/A,,Mostly Cloudy,190,2013-04-04 09:15:00
3:35 AM,46.4,28.4,50,30.04,10.0,SSW,8.1,-,N/A,,Overcast,200,2013-04-04 09:35:00
3:55 AM,46.4,28.4,50,30.04,10.0,SW,10.4,-,N/A,,Mostly Cloudy,220,2013-04-04 09:55:00
4:15 AM,48.2,28.4,46,30.04,10.0,SW,9.2,-,N/A,,Partly Cloudy,230,2013-04-04 10:15:00
4:35 AM,46.4,30.2,53,30.03,10.0,West,4.6,-,N/A,,Clear,270,2013-04-04 10:35:00
4:55 AM,46.4,30.2,53,30.03,10.0,WSW,5.8,-,N/A,,Clear,250,2013-04-04 10:55:00
5:15 AM,46.4,30.2,53,30.03,10.0,SW,9.2,-,N/A,,Clear,230,2013-04-04 11:15:00
5:35 AM,46.4,30.2,53,30.04,10.0,West,6.9,-,N/A,,Clear,270,2013-04-04 11:35:00
5:55 AM,44.6,28.4,53,30.04,10.0,Calm,Calm,-,N/A,,Clear,0,2013-04-04 11:55:00
6:15 AM,44.6,28.4,53,30.04,10.0,North,3.5,-,N/A,,Clear,350,2013-04-04 12:15:00
6:35 AM,42.8,28.4,57,30.03,10.0,Calm,Calm,-,N/A,,Clear,0,2013-04-04 12:35:00
6:55 AM,39.2,28.4,65,30.04,10.0,Calm,Calm,-,N/A,,Clear,0,2013-04-04 12:55:00
7:15 AM,42.8,30.2,61,30.03,10.0,NE,3.5,-,N/A,,Clear,40,2013-04-04 13:15:00
7:55 AM,44.6,30.2,57,30.04,10.0,Calm,Calm,-,N/A,,Clear,0,2013-04-04 13:55:00
8:15 AM,44.6,30.2,57,30.04,10.0,Calm,Calm,-,N/A,,Clear,0,2013-04-04 14:15:00
8:35 AM,50.0,32.0,50,30.03,10.0,Calm,Calm,-,N/A,,Clear,0,2013-04-04 14:35:00
8:55 AM,51.8,32.0,47,30.03,10.0,NNE,3.5,-,N/A,,Clear,30,2013-04-04 14:55:00
9:15 AM,53.6,32.0,44,30.02,10.0,WNW,5.8,-,N/A,,Clear,300,2013-04-04 15:15:00
10:35 AM,57.2,32.0,38,30.01,10.0,NE,6.9,17.3,N/A,,Scattered Clouds,40,2013-04-04 16:35:00
11:15 AM,60.8,32.0,34,30.01,10.0,WNW,12.7,19.6,N/A,,Clear,290,2013-04-04 17:15:00
11:35 AM,62.6,30.2,30,30.01,10.0,WSW,10.4,17.3,N/A,,Partly Cloudy,250,2013-04-04 17:35:00
11:55 AM,64.4,26.6,24,30.00,10.0,WSW,19.6,28.8,N/A,,Clear,250,2013-04-04 17:55:00
12:15 PM,64.4,26.6,24,29.99,10.0,WNW,11.5,21.9,N/A,,Clear,290,2013-04-04 18:15:00
12:35 PM,64.4,26.6,24,29.98,10.0,West,11.5,17.3,N/A,,Clear,280,2013-04-04 18:35:00
1:15 PM,64.4,26.6,24,29.96,10.0,West,10.4,-,N/A,,Partly Cloudy,260,2013-04-04 19:15:00
1:36 PM,66.2,26.6,23,29.95,10.0,West,8.1,-,N/A,,Clear,280,2013-04-04 19:36:00
1:55 PM,66.2,26.6,23,29.94,10.0,West,8.1,-,N/A,,Clear,260,2013-04-04 19:55:00
2:15 PM,64.4,24.8,22,29.93,10.0,West,10.4,16.1,N/A,,Scattered Clouds,280,2013-04-04 20:15:00
2:35 PM,68.0,26.6,21,29.92,10.0,WNW,8.1,-,N/A,,Scattered Clouds,290,2013-04-04 20:35:00
2:55 PM,68.0,24.8,20,29.92,10.0,West,9.2,20.7,N/A,,Clear,280,2013-04-04 20:55:00
3:35 PM,66.2,24.8,21,29.91,10.0,West,9.2,16.1,N/A,,Scattered Clouds,260,2013-04-04 21:35:00
3:55 PM,64.4,24.8,22,29.90,10.0,SW,8.1,-,N/A,,Mostly Cloudy,230,2013-04-04 21:55:00
4:15 PM,66.2,24.8,21,29.90,10.0,West,11.5,-,N/A,,Overcast,260,2013-04-04 22:15:00
4:35 PM,68.0,26.6,21,29.89,10.0,WSW,6.9,17.3,N/A,,Overcast,250,2013-04-04 22:35:00
4:55 PM,66.2,26.6,23,29.89,10.0,West,8.1,-,N/A,,Overcast,270,2013-04-04 22:55:00
5:55 PM,64.4,26.6,24,29.88,10.0,WSW,4.6,-,N/A,,Overcast,250,2013-04-04 23:55:00
6:16 PM,64.4,26.6,24,29.88,10.0,West,10.4,16.1,N/A,,Mostly Cloudy,270,2013-04-05 00:16:00
6:35 PM,64.4,28.4,26,29.88,10.0,West,11.5,16.1,N/A,,Scattered Clouds,280,2013-04-05 00:35:00
6:55 PM,64.4,28.4,26,29.88,10.0,WSW,10.4,-,N/A,,Mostly Cloudy,250,2013-04-05 00:55:00
7:15 PM,62.6,28.4,27,29.88,10.0,West,10.4,-,N/A,,Mostly Cloudy,260,2013-04-05 01:15:00
7:35 PM,60.8,30.2,31,29.87,10.0,West,8.1,-,N/A,,Partly Cloudy,280,2013-04-05 01:35:00
7:55 PM,60.8,30.2,31,29.86,10.0,West,5.8,-,N/A,,Partly Cloudy,260,2013-04-05 01:55:00
8:15 PM,59.0,30.2,34,29.86,10.0,WSW,5.8,-,N/A,,Partly Cloudy,250,2013-04-05 02:15:00
8:55 PM,57.2,30.2,36,29.85,10.0,SW,9.2,-,N/A,,Clear,230,2013-04-05 02:55:00
9:15 PM,55.4,32.0,41,29.85,10.0,WSW,6.9,-,N/A,,Clear,240,2013-04-05 03:15:00
9:35 PM,55.4,32.0,41,29.86,10.0,Calm,Calm,-,N/A,,Clear,0,2013-04-05 03:35:00
9:55 PM,55.4,30.2,38,29.85,10.0,Calm,Calm,-,N/A,,Clear,0,2013-04-05 03:55:00
10:15 PM,55.4,30.2,38,29.85,10.0,SSE,3.5,-,N/A,,Clear,150,2013-04-05 04:15:00
10:35 PM,55.4,30.2,38,29.85,10.0,Calm,Calm,-,N/A,,Clear,0,2013-04-05 04:35:00
10:55 PM,55.4,30.2,38,29.86,10.0,SSW,5.8,-,N/A,,Mostly Cloudy,210,2013-04-05 04:55:00
11:15 PM,53.6,32.0,44,29.84,10.0,South,4.6,-,N/A,,Scattered Clouds,170,2013-04-05 05:15:00
11:55 PM,53.6,30.2,41,29.83,10.0,Calm,Calm,-,N/A,,Clear,0,2013-04-05 05:55:00